Погода в Таузе

Азербайджан     40°59′39″N   45°37′04″E
темп.,
°C
ветер,
м/с
пор.,
м/с
влажн.,
%
обл.,
%
осадки,
мм/ч
давл.,
гПа
погр.,
м
11 мая, вт
вт1101:00+6сз126085 0.0 102276
04:00+5з116749 0.0 102218
07:00+6зсз126748 0.0 1023167
10:00+9с326035 0.0 1022872
13:00+12св325668 0.0 10191307
16:00+14с215411 0.0 10161154
19:00+14с11635 0.0 1015234
22:00+10юз32746 0.0 101624
12 мая, ср
ср1201:00+10юз22750 0.0 101717
04:00+9зюз22770 0.0 101722
07:00+10зюз22740 0.0 101770
10:00+15с22580 0.0 1015530
13:00+20св21500 0.0 1014775
16:00+22всв22450 0.0 1012800
19:00+20вюв22590 0.0 101242
22:00+15зюз22711 0.0 101416
13 мая, чт
чт1301:00+14зюз32750 0.0 101619
04:00+13зюз22770 0.0 101616
07:00+15зюз22741 0.0 101754
10:00+19ссв21600 0.0 1016579
13:00+22всв22520 0.0 1015896
16:00+24всв23454 0.0 1013887
19:00+23в125954 0.0 101323
22:00+18юз336765 0.0 101521
14 мая, пт
пт1401:00+17зюз336890 0.0 101626
04:00+16юз337127 0.0 101624
07:00+17юз227216 0.0 101743
10:00+21ссв215941 0.0 1016650
13:00+24всв225024 0.0 10151270
16:00+26в234668 0.0 10141487
19:00+24юв1157100 0.1 101419
22:00+19юз445228 0.1 101541
15 мая, сб
сб1501:00+18юз32591 0.0 101620
04:00+16зюз22690 0.0 101621
07:00+17зюз22710 0.0 101664
10:00+21с22607 0.0 1016693
13:00+25ссв21515 0.0 10151138
16:00+26в224116 0.0 10131333
19:00+24всв22533 0.0 101326
22:00+19юз33573 0.0 101426